Погода в Заплавской

Россия / Ростовская область     47°24′16″N   40°18′45″E
темп.,
°C
ветер,
м/с
пор.,
м/с
влажн.,
%
обл.,
%
осадки,
мм/ч
давл.,
гПа
погр.,
м
14 апреля, ср
ср1400:00+10с239195 0.0 102162
03:00+10с4591100 0.3 101995
06:00+11ссв61189100 0.1 1017212
09:00+14всв3575100 0.1 1018555
12:00+17в4542100 0.0 10161215
15:00+18юв223882 0.0 10151553
18:00+16вюв235999 0.0 1015115
21:00+12з3680100 0.0 1016123
15 апреля, чт
чт1500:00+10зюз38852 0.0 1016179
03:00+9з23875 0.0 101663
06:00+8з22864 0.0 101636
09:00+13зюз34675 0.0 1017409
12:00+16ююз34555 0.0 10161148
15:00+18юз45476 0.0 10161742
18:00+15зюз586595 0.3 1016406
21:00+13зсз13765 0.3 1017113
16 апреля, пт
пт1600:00+10юз228635 0.0 101625
03:00+9юз2393100 0.0 101745
06:00+8зюз229099 0.0 101840
09:00+12зюз23759 0.0 1018596
12:00+15юз3455100 0.0 10181218
15:00+15зюз6556100 0.1 10181639
18:00+11з2383100 1.9 1019344
21:00+10зюз228653 2.1 102045
17 апреля, сб
сб1700:00+9зсз2581100 0.1 1020173
03:00+8з3777100 0.1 1020328
06:00+7з35826 0.0 1022135
09:00+11з457244 0.4 1021958
12:00+14зюз454822 0.1 10231911
15:00+14зюз44437 0.1 10231838
18:00+13зюз23515 0.0 1023335
21:00+10з22625 0.0 102326
18 апреля, вс
вс1800:00+8с33715 0.0 102334
03:00+8ссв33735 0.0 102337
06:00+7в22765 0.0 102321
09:00+12в3462100 0.0 1023512
12:00+15вюв4552100 0.0 10231481
15:00+17в344295 0.0 10211991
18:00+14в5860100 0.0 1022435
21:00+11всв386944 0.0 1022167